This demonstration page uses our WeatherBlox Daily Observations layout. Learn more.

Left ArrowRight Arrow

Hourly Observations for February 5, 2016

Temp ( °F °C ) Dew Point ( °F °C ) Humidity (%) Winds ( mph kmh ) Pressure ( in mb ) Visibility ( mi km ) Precip ( " mm )
12:59 am 00:59 Cloudy with Mist and Fog 41 5 38 3.3 89 89 N 23 37 30.03 1017 4 6 0.01 0.25
1:16 am 01:16 Cloudy with Rain 41 5 38 3.3 89 89 NNE 25 41 30.00 1016 3 4 0.02 0.51
1:59 am 01:59 Cloudy with Light Rain 41 5 38 3.3 89 89 N 22 35 30.00 1016 3 5 0.09 2.29
2:59 am 02:59 Cloudy with Light Rain 40 4.4 37 2.8 89 89 N 23 37 29.97 1015 4 6 0.15 3.81
3:40 am 03:40 Cloudy with Rain 40 4.4 37 2.8 89 89 N 15 24 30.00 1016 3 4 0.06 1.52
3:46 am 03:46 Cloudy with Rain 40 4.4 37 2.8 89 89 N 17 28 29.97 1015 2 3 0.09 2.29
3:57 am 03:57 Cloudy with Light Rain 39 4 37 3 93 93 NNW 18 30 30.00 1016 3 5 0.12 3.05
3:59 am 03:59 Cloudy with Light Rain 40 4.4 37 2.8 89 89 NNW 18 30 30.01 1016 3 5 0.12 3.05
4:59 am 04:59 Cloudy with Light Rain 39 3.9 35 1.7 86 86 NNW 23 37 30.02 1017 3 5 0.18 4.57
5:51 am 05:51 Cloudy with Mist and Fog 38 3.3 34 1.1 86 86 N 22 35 30.03 1017 4 6 0.06 1.52
5:59 am 05:59 Cloudy with Mist and Fog 37 2.8 33 0.6 86 86 N 20 31 30.04 1017 5 8 0.06 1.52
6:12 am 06:12 Cloudy with Mist and Fog 36 2.2 32 0 86 86 NNW 23 37 30.03 1017 3 4 0.04 1.02
6:20 am 06:20 Cloudy with Mist and Fog 36 2.2 33 0.6 89 89 NNW 24 39 30.06 1018 3 5 0.05 1.27
6:56 am 06:56 Cloudy with Mist and Fog 36 2 34 1 93 93 NNW 23 37 30.12 1020 3 4 0.10 2.54
6:59 am 06:59 Windy with Snow Likely 36 2.2 33 0.6 89 89 NNW 20 31 30.13 1020 3 4 0.10 2.54
7:08 am 07:08 Windy with Snow Likely 35 1.7 33 0.6 93 93 NNW 21 33 30.15 1021 3 4 0.01 0.25
7:16 am 07:16 Windy with Snow Likely 36 2.2 33 0.6 89 89 NNW 21 33 30.12 1020 4 6 0.02 0.51
7:59 am 07:59 Cloudy with Light Rain 36 2.2 33 0.6 89 89 NNW 23 37 30.16 1021 3 4 0.05 1.27
8:32 am 08:32 Cloudy with Light Rain 36 2.2 33 0.6 89 89 NNW 25 41 30.12 1020 4 6 0.01 0.25
8:45 am 08:45 Cloudy with Light Rain 37 2.8 33 0.6 86 86 NNW 22 35 30.18 1022 5 8 0.01 0.25
8:59 am 08:59 Cloudy with Light Rain 37 2.8 33 0.6 86 86 NNW 22 35 30.17 1022 5 8 0.01 0.25
9:55 am 09:55 Cloudy 37 3 34 1 87 87 NNW 22 35 30.21 1023 8 13 0.01 0.25
9:59 am 09:59 Cloudy 39 3.9 33 0.6 79 79 NNW 21 33 30.22 1024 9 14 0.01 0.25
10:59 am 10:59 Cloudy 40 4.4 32 0 73 73 NNW 21 33 30.25 1024 10 16 0.00 0.00
11:59 am 11:59 Mostly Cloudy 43 6.1 31 -0.6 63 63 NW 23 37 30.27 1025 10 16 0.00 0.00
12:59 pm 12:59 Mostly Cloudy 42 5.6 29 -1.7 60 60 NW 17 28 30.28 1025 10 16 0.00 0.00
1:59 pm 13:59 Mostly Sunny 46 7.8 29 -1.7 51 51 NW 17 28 30.29 1026 10 16 0.00 0.00
2:59 pm 14:59 Partly Cloudy 45 7.2 27 -2.8 49 49 N 16 26 30.27 1025 10 16 0.00 0.00
3:59 pm 15:59 Mostly Sunny 45 7.2 27 -2.8 49 49 NNW 16 26 30.28 1025 10 16 0.00 0.00
4:59 pm 16:59 Mostly Sunny 44 6.7 26 -3.3 49 49 NW 12 19 30.31 1026 10 16 0.00 0.00
5:59 pm 17:59 Mostly Clear 42 5.6 25 -3.9 51 51 NNW 14 22 30.35 1028 10 16 0.00 0.00
6:59 pm 18:59 Mostly Clear 41 5 25 -3.9 53 53 NNW 10 17 30.36 1028 10 16 0.00 0.00
7:59 pm 19:59 Clear 40 4.4 24 -4.4 53 53 NNW 7 11 30.38 1029 10 16 0.00 0.00
8:59 pm 20:59 Clear 40 4.4 23 -5 51 51 N 10 17 30.40 1029 10 16 0.00 0.00
9:59 pm 21:59 Clear 38 3.3 24 -4.4 57 57 N 8 13 30.40 1030 10 16 0.00 0.00
10:59 pm 22:59 Clear 38 3.3 23 -5 55 55 N 7 11 30.41 1030 10 16 0.00 0.00
11:59 pm 23:59 Clear 37 2.8 23 -5 57 57 N 7 11 30.42 1030 10 16 0.00 0.00

Powered by AerisWeather